SHIJIAN-23 (SJ-23)

Last updated on Mon Oct 20 2025 00:02:50 GMT+0000 (Coordinated Universal Time)

1 55131U 23002A 25292.69947409 .00000143 00000+0 00000+0 0 9996 2 55131 3.0969 81.3672 0000423 293.0697 286.2815 1.00453505 10091
UTC large
Height (km)
Speed (km/s)
/
Latitude / Longitude
Inclination (degrees)
Orbital Period (minutes)
Azimuth
Elevation
Range (km)
Doppler Factor

Next 0 passes for location: London (51.5072 / 0.1276)

Sorry there are no passes over London.